Home   Weather   Lublin   Past weeks
Flag for Poland

Past Weather in Lublin, Poland — Yesterday and Last 2 Weeks

Now
53 °F

Overcast.


Feels Like: 52 °F
Forecast: 62 / 39 °F
Wind: 5 mph from Northwest

Location: Lublin Radawiec

Current Time: Sep 20, 2019 at 4:12:26 pm

Latest Report: Sep 20, 2019 at 3:00 pm


Visibility: 25 mi

Pressure: 30.25 "Hg

Humidity: 59%

Dew Point: 39 °F

Location of LublinLocation

Past Weather in Lublin — Graph

°F

Lublin Temperature Yesterday

Maximum temperature yesterday: 55 °F (at 3:00 pm)
Minimum temperature yesterday: 42 °F (at 11:00 pm)
Average temperature yesterday: 47 °F

High & Low Weather Summary for the Past Weeks

 TemperatureHumidityPressure
High78 °F (Sep 9, 3:00 pm)100% (Sep 20, 7:00 am)30.46 "Hg (Sep 20, 7:00 am)
Low38 °F (Sep 20, 6:00 am)36% (Sep 9, 4:00 pm)29.74 "Hg (Sep 17, 8:00 pm)
Average58 °F72%30.13 "Hg
* Reported Sep 5 2:00 pm — Sep 20 2:00 pm, Lublin. Weather by CustomWeather, © 2019

Note: Actual official high and low records may vary slightly from our data, if they occured in-between our weather recording intervals... More about our weather records

Advertising

Lublin Weather History for the Previous 24 Hours

Scroll right to see more
 ConditionsComfort  
Time TempWeatherWind HumidityBarometerVisibility
2:00 pm
Fri, Sep 20
53 °FOvercast.7 mph54%30.24 "Hg25 mi
1:00 pm53 °FOvercast.7 mph68%30.26 "Hg19 mi
12:00 pm50 °FOvercast.5 mph72%30.27 "Hg25 mi
11:00 am48 °FScattered clouds.3 mph88%30.28 "Hg19 mi
10:00 am46 °FOvercast.3 mph85%30.28 "Hg19 mi
9:00 am44 °FOvercast.5 mph93%30.28 "Hg12 mi
8:00 am40 °FFog.3 mph100%30.27 "Hg4 mi
7:00 am38 °FFog.3 mph100%30.27 "Hg1 mi
6:00 am38 °FFog.3 mph98%30.27 "Hg1 mi
5:00 am38 °FClear.3 mph98%30.26 "Hg6 mi
4:00 am39 °FClear.3 mph96%30.26 "Hg11 mi
3:00 am40 °FClear.5 mph95%30.26 "Hg16 mi
2:00 am40 °FClear.3 mph96%30.26 "Hg12 mi
1:00 am40 °FPassing clouds.3 mph96%30.26 "Hg11 mi
12:00 am42 °FOvercast.5 mph97%30.26 "Hg11 mi
11:00 pm
Thu, Sep 19
42 °FPassing clouds.3 mph96%30.25 "Hg9 mi
10:00 pm43 °FPassing clouds.5 mph93%30.25 "Hg25 mi
9:00 pm44 °FOvercast.5 mph92%30.25 "Hg19 mi
8:00 pm42 °FPassing clouds.2 mph90%30.24 "Hg22 mi
7:00 pm46 °FOvercast.3 mph80%30.22 "Hg31 mi
6:00 pm51 °FOvercast.5 mph60%30.20 "Hg31 mi
5:00 pm52 °FOvercast.6 mph65%30.18 "Hg28 mi
4:00 pm55 °FPartly sunny.7 mph53%30.16 "Hg22 mi
Weather by CustomWeather, © 2019

See weather overview